FW0434 Weather Reports


time (UTC)temp
F
wind
direction
speed
knots
gust
knots
rain 1hr
in
rain 24hr
in
rain mn
in
humidity
%
barometer
mb
20260901111552 53 184 0.0 0.0 0.00 0.00 0.00 94 1012.6
20260901110049 54 184 0.0 0.0 0.00 0.00 0.00 95 1012.3
20260901104614 55 184 0.0 0.0 0.00 0.00 0.00 95 1012.3
20260901103032 55 184 0.0 0.0 0.00 0.00 0.00 94 1012.4
20260901101541 55 184 0.0 0.0 0.00 0.00 0.00 94 1012.2
20260901100048 56 184 0.0 0.0 0.00 0.00 0.00 95 1012.2
20260901094511 55 184 0.0 0.0 0.00 0.00 0.00 93 1011.9
20260901093023 55 184 0.0 0.0 0.00 0.00 0.00 93 1011.8
20260901091546 56 184 0.0 0.0 0.00 0.00 0.00 92 1011.7
20260901090031 56 184 0.0 0.0 0.00 0.00 0.00 91 1011.6
20260901084542 56 184 0.0 0.0 0.00 0.00 0.00 92 1011.3
20260901083052 57 184 0.0 0.9 0.00 0.00 0.00 92 1011.4
20260901081613 58 184 0.0 0.9 0.00 0.00 0.00 92 1011.6
20260901080127 58 184 0.0 0.0 0.00 0.00 0.00 92 1011.4
20260901074529 58 184 0.0 0.0 0.00 0.00 0.00 91 1011.5
20260901073031 59 184 0.0 0.0 0.00 0.00 0.00 90 1011.5
20260901071542 60 184 0.0 0.0 0.00 0.00 0.00 91 1011.5
20260901070041 60 184 0.0 0.0 0.00 0.00 0.00 92 1011.7
20260901064546 58 184 0.0 0.0 0.00 0.00 0.00 92 1011.9
20260901063050 59 184 0.0 0.0 0.00 0.00 0.00 91 1011.8
20260901061557 59 184 0.0 0.0 0.00 0.00 0.00 91 1011.7
20260901060056 60 184 0.0 0.0 0.00 0.00 0.00 91 1011.7
20260901054559 61 184 0.0 1.7 0.00 0.00 0.00 90 1011.5
20260901053014 62 184 0.9 2.6 0.00 0.00 0.00 91 1011.5
20260901051514 62 184 0.0 0.0 0.00 0.00 0.00 91 1011.5
20260901050023 61 184 0.0 0.0 0.00 0.00 0.00 90 1011.4
20260901044533 62 184 0.0 0.0 0.00 0.00 0.00 89 1011.6
20260901043047 62 184 0.0 0.0 0.00 0.00 0.00 87 1011.4
20260901041543 63 184 0.0 0.0 0.00 0.00 0.00 87 1011.5
20260901040055 63 184 0.0 0.0 0.00 0.00 0.00 86 1011.5
20260901034510 64 184 0.0 0.0 0.00 0.00 0.00 85 1011.3
20260901033028 65 184 0.0 0.0 0.00 0.00 0.00 85 1011.3
20260901031526 65 184 0.0 0.0 0.00 0.00 0.00 84 1011.2
20260901030039 66 184 0.0 0.0 0.00 0.00 0.00 82 1011.1
20260901024600 67 184 0.0 0.0 0.00 0.00 0.00 82 1011.0
20260901023011 68 184 0.0 0.0 0.00 0.00 0.00 80 1010.9
20260901021533 69 184 0.0 0.0 0.00 0.00 0.00 79 1010.7
20260901020042 70 184 0.0 0.0 0.00 0.00 0.00 79 1010.3
20260901014552 72 184 0.0 0.0 0.00 0.00 0.00 76 1010.1
20260901013101 73 184 0.0 0.0 0.00 0.00 0.00 75 1010.2
20260901011511 75 184 0.0 0.0 0.00 0.00 0.00 71 1010.0
20260901010019 78 184 0.0 0.0 0.00 0.00 0.00 67 1010.1
20260901004531 79 184 0.0 0.0 0.00 0.00 0.00 64 1010.1
20260901003049 80 184 0.0 0.0 0.00 0.00 0.00 62 1010.1
20260901001600 80 184 0.9 1.7 0.00 0.00 0.00 58 1009.9
20260901000056 80 184 0.9 1.7 0.00 0.00 0.00 61 1010.0
20260831234528 81 184 0.9 2.6 0.00 0.00 0.00 59 1010.2
20260831233033 81 184 0.9 2.6 0.00 0.00 0.00 59 1010.2
20260831231544 82 184 0.0 1.7 0.00 0.00 0.00 53 1010.3
20260831230055 84 230 1.7 2.6 0.00 0.00 0.00 47 1010.2
20260831224601 83 239 0.9 3.5 0.00 0.00 0.00 48 1010.1
20260831223013 83 250 1.7 4.3 0.00 0.00 0.00 47 1010.1
20260831221525 84 280 0.9 3.5 0.00 0.00 0.00 47 1010.2
20260831220031 84 234 1.7 3.5 0.00 0.00 0.00 47 1010.3
20260831214542 84 267 1.7 4.3 0.00 0.00 0.00 44 1010.3
20260831213049 82 285 1.7 7.8 0.00 0.00 0.00 46 1010.4
20260831211504 83 241 2.6 5.2 0.00 0.00 0.00 46 1010.4
20260831210004 82 278 1.7 5.2 0.00 0.00 0.00 49 1010.3
20260831204517 82 251 2.6 9.6 0.00 0.00 0.00 50 1010.4
20260831203037 82 251 3.5 7.8 0.00 0.00 0.00 52 1010.6
20260831201529 81 225 1.7 6.1 0.00 0.00 0.00 54 1010.6
20260831200039 81 211 2.6 7.8 0.00 0.00 0.00 54 1010.5
20260831194546 81 316 1.7 5.2 0.00 0.00 0.00 53 1010.5
20260831193054 81 251 2.6 7.8 0.00 0.00 0.00 55 1010.6
20260831191554 81 273 2.6 5.2 0.00 0.00 0.00 56 1010.4
20260831190135 80 299 2.6 6.1 0.00 0.00 0.00 56 1010.4
20260831184503 79 312 2.6 9.6 0.00 0.00 0.00 56 1010.3
20260831183016 79 284 1.7 6.1 0.00 0.00 0.00 58 1010.3
20260831181544 78 342 1.7 7.8 0.00 0.00 0.00 61 1010.5
20260831180037 77 333 3.5 8.7 0.00 0.00 0.00 60 1010.7
20260831174549 77 344 2.6 7.0 0.00 0.00 0.00 61 1010.9
20260831173040 77 292 2.6 8.7 0.00 0.00 0.00 59 1010.9
20260831171544 76 360 2.6 5.2 0.00 0.00 0.00 64 1010.7
20260831170043 75 337 2.6 6.1 0.00 0.00 0.00 69 1010.7
20260831164557 73 350 2.6 7.0 0.00 0.00 0.00 73 1010.5
20260831163055 72 355 2.6 6.1 0.00 0.00 0.00 75 1010.6
20260831161503 71 325 2.6 7.0 0.00 0.00 0.00 79 1010.7
20260831160033 70 328 2.6 7.0 0.00 0.00 0.00 85 1010.6
20260831154531 68 332 2.6 6.1 0.00 0.00 0.00 87 1010.7
20260831153116 68 335 2.6 7.0 0.00 0.00 0.00 87 1010.7
20260831151543 67 328 2.6 6.1 0.00 0.00 0.00 88 1010.6
20260831150048 67 336 4.3 8.7 0.00 0.00 0.00 89 1010.4
20260831144502 67 343 4.3 7.0 0.00 0.00 0.00 90 1010.5
20260831143002 66 349 3.5 7.0 0.00 0.00 0.00 92 1010.3
20260831141513 65 360 4.3 9.6 0.00 0.00 0.00 93 1009.9
20260831140010 65 328 5.2 8.7 0.00 0.00 0.00 93 1009.7
20260831134513 65 325 5.2 8.7 0.00 0.00 0.00 94 1009.4
20260831133021 64 328 4.3 8.7 0.00 0.00 0.00 96 1009.3
20260831131537 64 326 4.3 8.7 0.00 0.00 0.00 96 1009.1
20260831130041 64 342 3.5 9.6 0.00 0.00 0.00 96 1009.1
20260831124540 63 329 3.5 7.0 0.00 0.00 0.00 96 1009.0
20260831123047 63 311 2.6 7.8 0.00 0.00 0.00 96 1008.7
20260831121551 63 327 1.7 5.2 0.00 0.00 0.00 96 1008.3
20260831120142 64 12 2.6 5.2 0.00 0.00 0.00 95 1008.0
20260831114558 64 329 1.7 4.3 0.00 0.00 0.00 95 1007.7
20260831113058 65 321 0.0 2.6 0.00 0.00 0.00 95 1007.6